Voltar ao catálogo

CBERS 1 DEB

AtivoSSO
NORAD 32079·DEBRIS·🇧🇷 Brazil🇨🇳 China

Lançado Oct 14, 1999 de Taiyuan Satellite Launch Center

Loading…

Próximas Passagens (próximas 24 horas)

TLE

AtualizadoSource: Space-Track

Época: Sep 12, 2026, 19:44 UTC

1 32079U 99057QT  26255.82267201  .00000566  00000-0  17401-3 0  9992
2 32079  98.7384 288.8232 0005081   5.5651 354.5595 14.45423492 10118

Acompanhe CBERS 1 DEB em tempo real com AllMySat

Download on the App Store